Tracking 30923 objects as of 1-Jul-2025
HD Live streaming from Space Station
objects crossing your sky now

COSMOS 1375 DEB

Track COSMOS 1375 DEB now!
10-day predictions


NORAD ID: 17806
Int'l Code: 1982-055AY
Perigee: 922.9 km
Apogee: 1,013.8 km
Inclination: 65.8 °
Period: 104.3 minutes
Semi major axis: 7339 km
RCS: 0.0072 m2 (small)
Launch date: June 6, 1982
Source: Commonwealth of Independent States (former USSR) (CIS)
Launch site: PLESETSK MISSILE AND SPACE COMPLEX (PKMTR)

Note: This is SATELLITE DEBRIS
Your satellite tracking list
Your tracking list is empty




NASA's NSSDC Master Catalog

Two Line Element Set (TLE):
1 17806U 82055AY  25181.55211325 -.00000018  00000-0  59857-4 0  9991
2 17806  65.8331 232.6593 0061883 329.2662 146.1051 13.80751685998183
Source of the keplerian elements: AFSPC